Location: Castillon
(43.0896°N, 0.2156°E)
Time: 02:08:47
(UTC+00:00)

COSMOS 2428 - Pass Details

Date: 16 June 2021
Orbit: 845 x 857 km, 70.9° (Epoch: 04 August)

Event Time Altitude Azimuth Distance (km) Brightness Sun altitude
Exits shadow 23:43:01 11° 248° (WSW) 2,410 4.9 -23.4°
Maximum altitude 23:47:44 30° 306° (NW) 1,508 4.3 -23.5°
Drops below altitude 10° 23:52:43 10° 7° (N) 2,501 6.2 -23.5°
Sets 23:55:31 0° 18° (NNE) 3,441 7.1 -23.5°
